QPF
0.04 0.03 0.02 0.01 0.01 0.01 0.02 0.02 0.03 0.02 0.02 0.03 0.03 0.03 0.04 0.03 0.03 0.03 0.02 0.03 0.03 0.03 0.04 0.03 0.02 0.02 0.02 0.02 0.03 0.05 0.06 0.07 0.07 0.07 0.07 0.07 0.06 0.05 0.04 0.04 0.04 0.06 0.06
0.05 0.03 0.02 0.01 0.01 0.01 0.02 0.03 0.04 0.04 0.03 0.04 0.04 0.03 0.03 0.02 0.03 0.02 0.03 0.03 0.03 0.03 0.03 0.03 0.03 0.03 0.03 0.03 0.03 0.03 0.04 0.05 0.05 0.05 0.06 0.06 0.05 0.05 0.04 0.04 0.04 0.05 0.06
0.06 0.04 0.02 0.02 0.02 0.01 0.02 0.03 0.03 0.04 0.05 0.06 0.04 0.04 0.03 0.03 0.03 0.04 0.05 0.05 0.04 0.03 0.03 0.03 0.03 0.05 0.07 0.07 0.05 0.04 0.04 0.05 0.06 0.06 0.06 0.06 0.05 0.03 0.03 0.03 0.02 0.04 0.04
0.05 0.04 0.02 0.02 0.02 0.02 0.03 0.04 0.05 0.05 0.06 0.06 0.05 0.04 0.04 0.04 0.03 0.04 0.05 0.06 0.05 0.05 0.05 0.06 0.06 0.08 0.10 0.08 0.06 0.05 0.06 0.07 0.07 0.06 0.05 0.05 0.05 0.03 0.02 0.02 0.02 0.03 0.03
0.03 0.02 0.02 0.02 0.02 0.03 0.04 0.05 0.05 0.05 0.07 0.07 0.05 0.06 0.06 0.05 0.05 0.06 0.06 0.06 0.06 0.05 0.04 0.06 0.08 0.07 0.07 0.07 0.08 0.07 0.08 0.07 0.06 0.05 0.04 0.04 0.04 0.04 0.03 0.03 0.03 0.03 0.03
0.01 0.01 0.01 0.02 0.03 0.04 0.04 0.04 0.06 0.08 0.09 0.10 0.11 0.09 0.07 0.08 0.08 0.08 0.08 0.09 0.10 0.07 0.05 0.05 0.06 0.07 0.07 0.07 0.08 0.09 0.08 0.06 0.05 0.05 0.04 0.04 0.04 0.04 0.04 0.03 0.03 0.03 0.03
0.02 0.03 0.03 0.04 0.05 0.06 0.05 0.05 0.07 0.08 0.11 0.13 0.13 0.09 0.09 0.13 0.14 0.10 0.10 0.11 0.10 0.08 0.07 0.09 0.10 0.10 0.10 0.10 0.11 0.09 0.06 0.04 0.04 0.04 0.04 0.04 0.04 0.03 0.03 0.03 0.03 0.02 0.02
0.05 0.05 0.04 0.05 0.07 0.07 0.05 0.05 0.07 0.09 0.11 0.11 0.09 0.09 0.11 0.12 0.11 0.09 0.08 0.06 0.05 0.06 0.08 0.10 0.11 0.10 0.08 0.07 0.08 0.07 0.05 0.04 0.05 0.03 0.03 0.03 0.03 0.03 0.04 0.04 0.04 0.04 0.03
0.07 0.09 0.07 0.04 0.06 0.07 0.06 0.06 0.08 0.12 0.11 0.10 0.10 0.08 0.07 0.06 0.07 0.07 0.06 0.06 0.06 0.06 0.06 0.07 0.07 0.06 0.04 0.05 0.06 0.06 0.05 0.05 0.04 0.02 0.02 0.02 0.02 0.02 0.02 0.03 0.05 0.05 0.04
0.03 0.06 0.07 0.05 0.05 0.05 0.05 0.05 0.05 0.04 0.06 0.10 0.08 0.06 0.05 0.04 0.04 0.05 0.06 0.07 0.07 0.09 0.10 0.08 0.06 0.06 0.06 0.05 0.04 0.04 0.04 0.04 0.04 0.03 0.03 0.02 0.02 0.02 0.02 0.02 0.03 0.04 0.05
0.03 0.02 0.02 0.03 0.03 0.02 0.03 0.03 0.02 0.02 0.04 0.07 0.05 0.03 0.03 0.03 0.04 0.04 0.06 0.08 0.09 0.10 0.12 0.11 0.09 0.07 0.07 0.06 0.05 0.05 0.04 0.04 0.03 0.03 0.04 0.04 0.02 0.03 0.03 0.02 0.02 0.03 0.04
0.03 0.02 0.02 0.02 0.02 0.02 0.02 0.02 0.02 0.02 0.02 0.02 0.02 0.02 0.03 0.04 0.05 0.05 0.06 0.06 0.06 0.07 0.07 0.06 0.05 0.04 0.04 0.05 0.05 0.05 0.05 0.05 0.03 0.03 0.03 0.02 0.02 0.03 0.03 0.03 0.03 0.03 0.05
0.06 0.04 0.02 0.03 0.03 0.02 0.02 0.02 0.02 0.02 0.02 0.02 0.03 0.04 0.05 0.04 0.04 0.04 0.04 0.04 0.03 0.03 0.03 0.04 0.04 0.04 0.03 0.03 0.05 0.06 0.06 0.06 0.06 0.05 0.04 0.03 0.03 0.02 0.02 0.02 0.02 0.02 0.04
0.05 0.05 0.03 0.03 0.04 0.04 0.03 0.02 0.02 0.02 0.02 0.03 0.05 0.05 0.05 0.06 0.06 0.06 0.06 0.05 0.04 0.03 0.03 0.03 0.03 0.03 0.03 0.03 0.04 0.05 0.05 0.06 0.06 0.06 0.05 0.05 0.05 0.04 0.05 0.04 0.02 0.03 0.04
0.02 0.03 0.04 0.04 0.05 0.05 0.05 0.04 0.03 0.02 0.02 0.03 0.04 0.03 0.04 0.05 0.06 0.08 0.08 0.07 0.05 0.04 0.04 0.04 0.03 0.03 0.03 0.03 0.03 0.04 0.04 0.05 0.07 0.08 0.07 0.08 0.09 0.09 0.07 0.06 0.04 0.03 0.05
0.02 0.03 0.04 0.04 0.05 0.06 0.07 0.07 0.04 0.03 0.03 0.05 0.08 0.05 0.03 0.04 0.05 0.07 0.09 0.08 0.08 0.07 0.07 0.06 0.06 0.05 0.03 0.03 0.04 0.04 0.04 0.04 0.05 0.06 0.05 0.05 0.06 0.07 0.07 0.06 0.04 0.03 0.04
0.02 0.03 0.04 0.06 0.05 0.03 0.04 0.07 0.05 0.03 0.03 0.03 0.02 0.02 0.02 0.03 0.03 0.04 0.06 0.08 0.10 0.12 0.11 0.10 0.11 0.11 0.08 0.05 0.03 0.03 0.04 0.05 0.06 0.06 0.04 0.04 0.03 0.04 0.04 0.05 0.04 0.03 0.02
0.03 0.03 0.05 0.05 0.03 0.02 0.02 0.05 0.04 0.04 0.03 0.01 0.01 0.02 0.02 0.02 0.02 0.03 0.04 0.05 0.08 0.09 0.09 0.08 0.09 0.09 0.07 0.05 0.05 0.05 0.04 0.04 0.03 0.03 0.04 0.04 0.04 0.03 0.04 0.05 0.05 0.04 0.03
0.02 0.02 0.02 0.02 0.01 0.01 0.01 0.01 0.02 0.02 0.02 0.03 0.02 0.02 0.01 0.01 0.01 0.02 0.04 0.05 0.06 0.07 0.08 0.11 0.13 0.13 0.09 0.06 0.04 0.04 0.03 0.02 0.02 0.02 0.02 0.02 0.02 0.03 0.04 0.04 0.05 0.06 0.04
0.00 0.00 0.00 0.00 0.00 0.00 0.00 0.00 0.00 0.00 0.01 0.01 0.02 0.02 0.01 0.02 0.02 0.02 0.03 0.04 0.04 0.05 0.07 0.09 0.10 0.10 0.07 0.04 0.03 0.03 0.03 0.02 0.02 0.02 0.02 0.03 0.02 0.03 0.03 0.03 0.04 0.05 0.04
0.00 0.00 0.00 0.00 0.00 0.00 0.01 0.01 0.00 0.00 0.00 0.01 0.01 0.02 0.02 0.02 0.02 0.02 0.02 0.02 0.03 0.04 0.06 0.09 0.08 0.05 0.03 0.02 0.02 0.02 0.02 0.02 0.02 0.02 0.02 0.03 0.04 0.03 0.03 0.02 0.02 0.03 0.04
0.00 0.01 0.00 0.00 0.00 0.00 0.00 0.00 0.00 0.00 0.00 0.00 0.01 0.01 0.01 0.02 0.01 0.01 0.01 0.02 0.04 0.06 0.09 0.13 0.10 0.05 0.03 0.02 0.02 0.02 0.02 0.02 0.01 0.01 0.02 0.03 0.04 0.03 0.03 0.02 0.02 0.03 0.04
0.00 0.00 0.00 0.00 0.00 0.00 0.00 0.00 0.00 0.00 0.00 0.00 0.00 0.01 0.01 0.01 0.01 0.01 0.01 0.02 0.03 0.05 0.09 0.08 0.04 0.03 0.03 0.02 0.02 0.02 0.02 0.02 0.01 0.01 0.02 0.03 0.03 0.03 0.03 0.03 0.03 0.04 0.04
0.00 0.00 0.00 0.00 0.00 0.00 0.00 0.00 0.00 0.00 0.00 0.00 0.00 0.00 0.00 0.00 0.01 0.01 0.01 0.02 0.02 0.03 0.04 0.04 0.03 0.03 0.03 0.02 0.02 0.01 0.01 0.01 0.01 0.01 0.01 0.02 0.02 0.03 0.03 0.04 0.03 0.03 0.04
0.00 0.00 0.00 0.00 0.00 0.00 0.00 0.00 0.00 0.00 0.00 0.00 0.00 0.00 0.00 0.01 0.01 0.01 0.02 0.02 0.02 0.03 0.03 0.03 0.02 0.02 0.02 0.02 0.02 0.01 0.01 0.01 0.01 0.02 0.02 0.02 0.02 0.02 0.03 0.03 0.03 0.03 0.04
0.00 0.00 0.00 0.00 0.00 0.00 0.00 0.00 0.00 0.00 0.00 0.00 0.00 0.00 0.00 0.00 0.01 0.01 0.01 0.01 0.01 0.01 0.01 0.02 0.01 0.01 0.01 0.02 0.02 0.02 0.02 0.02 0.02 0.02 0.01 0.01 0.02 0.02 0.02 0.02 0.03 0.03 0.03
MSLP
1013.53 1013.42 1013.27 1013.08 1012.84 1012.56 1012.27 1012.02 1011.84 1011.74 1011.75 1011.84 1012.00 1012.21 1012.41 1012.61 1012.78 1012.93 1013.07 1013.21 1013.39 1013.61 1013.88 1014.18 1014.50 1014.83 1015.16 1015.46 1015.75 1016.02 1016.28 1016.53 1016.78 1017.01 1017.20 1017.34 1017.41 1017.40 1017.29 1017.12 1016.89 1016.65 1016.43
1013.93 1013.94 1013.90 1013.78 1013.58 1013.31 1013.02 1012.75 1012.55 1012.47 1012.50 1012.64 1012.85 1013.11 1013.36 1013.58 1013.74 1013.85 1013.93 1014.00 1014.09 1014.23 1014.41 1014.66 1014.94 1015.24 1015.54 1015.82 1016.09 1016.34 1016.58 1016.81 1017.03 1017.24 1017.43 1017.57 1017.65 1017.64 1017.55 1017.39 1017.16 1016.90 1016.65
1014.14 1014.29 1014.37 1014.35 1014.21 1013.98 1013.69 1013.42 1013.22 1013.14 1013.18 1013.35 1013.61 1013.90 1014.19 1014.41 1014.57 1014.64 1014.66 1014.66 1014.67 1014.72 1014.84 1015.03 1015.26 1015.53 1015.81 1016.08 1016.32 1016.55 1016.75 1016.95 1017.15 1017.34 1017.51 1017.65 1017.74 1017.77 1017.70 1017.56 1017.35 1017.10 1016.82
1014.16 1014.43 1014.63 1014.72 1014.66 1014.47 1014.22 1013.95 1013.75 1013.67 1013.72 1013.90 1014.18 1014.50 1014.81 1015.05 1015.19 1015.25 1015.23 1015.18 1015.13 1015.13 1015.19 1015.33 1015.53 1015.76 1016.02 1016.26 1016.48 1016.67 1016.84 1017.00 1017.16 1017.31 1017.47 1017.61 1017.71 1017.76 1017.74 1017.64 1017.46 1017.22 1016.94
1014.03 1014.40 1014.71 1014.89 1014.91 1014.78 1014.56 1014.31 1014.11 1014.02 1014.07 1014.26 1014.55 1014.89 1015.21 1015.47 1015.63 1015.68 1015.65 1015.58 1015.51 1015.47 1015.50 1015.60 1015.77 1015.98 1016.21 1016.42 1016.61 1016.76 1016.89 1016.99 1017.10 1017.22 1017.35 1017.47 1017.59 1017.67 1017.69 1017.64 1017.51 1017.30 1017.02
1013.84 1014.28 1014.66 1014.92 1015.01 1014.94 1014.75 1014.52 1014.33 1014.24 1014.28 1014.47 1014.76 1015.10 1015.44 1015.72 1015.90 1015.98 1015.96 1015.90 1015.83 1015.78 1015.80 1015.89 1016.03 1016.22 1016.42 1016.60 1016.75 1016.85 1016.92 1016.98 1017.03 1017.10 1017.19 1017.30 1017.42 1017.53 1017.59 1017.59 1017.51 1017.34 1017.09
1013.68 1014.14 1014.57 1014.89 1015.03 1015.01 1014.86 1014.66 1014.47 1014.38 1014.42 1014.59 1014.87 1015.22 1015.57 1015.87 1016.08 1016.19 1016.21 1016.17 1016.12 1016.09 1016.11 1016.19 1016.33 1016.49 1016.66 1016.81 1016.91 1016.97 1016.99 1016.99 1016.98 1017.00 1017.05 1017.14 1017.26 1017.38 1017.49 1017.54 1017.51 1017.39 1017.17
1013.60 1014.06 1014.51 1014.86 1015.04 1015.06 1014.95 1014.77 1014.61 1014.52 1014.55 1014.71 1014.99 1015.32 1015.68 1015.99 1016.22 1016.36 1016.42 1016.42 1016.40 1016.40 1016.43 1016.51 1016.64 1016.79 1016.93 1017.04 1017.11 1017.13 1017.10 1017.04 1016.99 1016.96 1016.98 1017.04 1017.16 1017.29 1017.43 1017.53 1017.55 1017.49 1017.32
1013.63 1014.07 1014.52 1014.87 1015.08 1015.13 1015.06 1014.92 1014.78 1014.71 1014.75 1014.90 1015.15 1015.47 1015.81 1016.12 1016.36 1016.53 1016.62 1016.65 1016.67 1016.69 1016.74 1016.82 1016.94 1017.07 1017.19 1017.28 1017.32 1017.30 1017.24 1017.15 1017.06 1017.00 1016.99 1017.04 1017.14 1017.29 1017.45 1017.59 1017.67 1017.66 1017.54
1013.74 1014.15 1014.57 1014.92 1015.14 1015.22 1015.20 1015.10 1015.01 1014.96 1015.00 1015.15 1015.38 1015.68 1015.99 1016.28 1016.52 1016.69 1016.79 1016.85 1016.89 1016.93 1016.99 1017.08 1017.20 1017.32 1017.42 1017.49 1017.52 1017.48 1017.41 1017.30 1017.20 1017.12 1017.09 1017.13 1017.23 1017.38 1017.56 1017.73 1017.85 1017.90 1017.84
1013.88 1014.25 1014.63 1014.95 1015.18 1015.29 1015.30 1015.26 1015.22 1015.21 1015.28 1015.43 1015.64 1015.91 1016.19 1016.44 1016.66 1016.81 1016.92 1016.99 1017.04 1017.10 1017.17 1017.27 1017.38 1017.49 1017.59 1017.66 1017.68 1017.65 1017.57 1017.47 1017.37 1017.29 1017.26 1017.29 1017.39 1017.54 1017.73 1017.93 1018.09 1018.19 1018.19
1013.97 1014.29 1014.62 1014.91 1015.12 1015.25 1015.32 1015.34 1015.36 1015.41 1015.51 1015.66 1015.87 1016.10 1016.34 1016.56 1016.74 1016.88 1016.98 1017.05 1017.11 1017.18 1017.26 1017.37 1017.49 1017.60 1017.70 1017.77 1017.79 1017.77 1017.71 1017.63 1017.54 1017.47 1017.45 1017.48 1017.57 1017.73 1017.92 1018.13 1018.33 1018.47 1018.53
1013.97 1014.22 1014.49 1014.74 1014.94 1015.08 1015.19 1015.28 1015.37 1015.47 1015.62 1015.79 1015.99 1016.20 1016.41 1016.59 1016.74 1016.85 1016.94 1017.02 1017.10 1017.18 1017.28 1017.40 1017.53 1017.65 1017.75 1017.82 1017.86 1017.85 1017.81 1017.75 1017.68 1017.63 1017.62 1017.65 1017.74 1017.89 1018.08 1018.29 1018.50 1018.68 1018.80
1013.84 1014.04 1014.24 1014.43 1014.61 1014.77 1014.92 1015.06 1015.22 1015.39 1015.58 1015.78 1015.98 1016.18 1016.35 1016.50 1016.63 1016.73 1016.83 1016.92 1017.01 1017.12 1017.25 1017.38 1017.52 1017.65 1017.76 1017.83 1017.88 1017.88 1017.86 1017.82 1017.77 1017.74 1017.73 1017.77 1017.85 1017.98 1018.16 1018.37 1018.58 1018.79 1018.95
1013.63 1013.76 1013.89 1014.04 1014.19 1014.35 1014.53 1014.72 1014.94 1015.17 1015.40 1015.62 1015.84 1016.02 1016.18 1016.32 1016.43 1016.54 1016.64 1016.76 1016.88 1017.03 1017.18 1017.34 1017.49 1017.62 1017.73 1017.81 1017.85 1017.87 1017.85 1017.83 1017.80 1017.78 1017.78 1017.81 1017.88 1017.99 1018.15 1018.34 1018.55 1018.76 1018.95
1013.36 1013.43 1013.51 1013.61 1013.73 1013.89 1014.09 1014.33 1014.59 1014.86 1015.12 1015.37 1015.59 1015.77 1015.93 1016.06 1016.17 1016.29 1016.42 1016.56 1016.73 1016.91 1017.09 1017.27 1017.44 1017.57 1017.68 1017.75 1017.79 1017.80 1017.79 1017.78 1017.76 1017.75 1017.75 1017.78 1017.84 1017.93 1018.06 1018.22 1018.41 1018.62 1018.83
1013.07 1013.11 1013.15 1013.21 1013.32 1013.47 1013.69 1013.95 1014.24 1014.53 1014.82 1015.07 1015.29 1015.47 1015.62 1015.75 1015.88 1016.02 1016.17 1016.36 1016.56 1016.77 1016.99 1017.18 1017.35 1017.49 1017.58 1017.64 1017.67 1017.68 1017.68 1017.67 1017.67 1017.67 1017.68 1017.71 1017.76 1017.83 1017.93 1018.06 1018.23 1018.42 1018.63
1012.80 1012.82 1012.84 1012.89 1012.99 1013.15 1013.37 1013.64 1013.94 1014.25 1014.53 1014.78 1015.00 1015.17 1015.31 1015.44 1015.58 1015.74 1015.92 1016.13 1016.36 1016.60 1016.83 1017.04 1017.21 1017.33 1017.42 1017.47 1017.49 1017.50 1017.51 1017.52 1017.54 1017.56 1017.59 1017.63 1017.68 1017.74 1017.82 1017.93 1018.06 1018.23 1018.43
1012.52 1012.56 1012.60 1012.66 1012.77 1012.93 1013.16 1013.43 1013.72 1014.02 1014.29 1014.53 1014.73 1014.88 1015.02 1015.14 1015.28 1015.45 1015.65 1015.87 1016.12 1016.37 1016.60 1016.81 1016.97 1017.09 1017.16 1017.21 1017.24 1017.26 1017.29 1017.33 1017.39 1017.45 1017.52 1017.59 1017.65 1017.71 1017.79 1017.87 1017.97 1018.11 1018.28
1012.20 1012.29 1012.36 1012.46 1012.59 1012.77 1013.00 1013.27 1013.55 1013.83 1014.09 1014.30 1014.48 1014.62 1014.73 1014.85 1014.99 1015.15 1015.34 1015.57 1015.81 1016.05 1016.27 1016.46 1016.61 1016.72 1016.79 1016.84 1016.89 1016.94 1017.02 1017.11 1017.22 1017.34 1017.47 1017.58 1017.68 1017.76 1017.84 1017.91 1017.99 1018.10 1018.24
1011.79 1011.94 1012.08 1012.21 1012.38 1012.59 1012.83 1013.09 1013.37 1013.63 1013.87 1014.06 1014.21 1014.34 1014.44 1014.55 1014.67 1014.81 1014.99 1015.19 1015.41 1015.63 1015.82 1015.99 1016.13 1016.23 1016.31 1016.38 1016.46 1016.56 1016.69 1016.86 1017.04 1017.24 1017.43 1017.61 1017.75 1017.87 1017.96 1018.04 1018.11 1018.20 1018.31
1011.27 1011.48 1011.67 1011.86 1012.07 1012.30 1012.56 1012.83 1013.10 1013.36 1013.58 1013.76 1013.90 1014.02 1014.11 1014.20 1014.30 1014.43 1014.58 1014.74 1014.92 1015.10 1015.26 1015.40 1015.52 1015.62 1015.72 1015.83 1015.95 1016.12 1016.32 1016.56 1016.83 1017.11 1017.38 1017.62 1017.82 1017.99 1018.11 1018.20 1018.28 1018.36 1018.46
1010.61 1010.87 1011.12 1011.36 1011.60 1011.86 1012.14 1012.42 1012.70 1012.95 1013.18 1013.36 1013.51 1013.62 1013.71 1013.80 1013.88 1013.98 1014.10 1014.22 1014.36 1014.49 1014.62 1014.73 1014.84 1014.94 1015.06 1015.21 1015.39 1015.62 1015.90 1016.22 1016.56 1016.92 1017.26 1017.57 1017.83 1018.04 1018.20 1018.33 1018.43 1018.52 1018.63
1009.85 1010.15 1010.43 1010.70 1010.97 1011.25 1011.54 1011.84 1012.13 1012.40 1012.64 1012.84 1013.01 1013.14 1013.23 1013.32 1013.39 1013.47 1013.55 1013.64 1013.73 1013.82 1013.91 1014.00 1014.10 1014.22 1014.37 1014.55 1014.79 1015.08 1015.42 1015.81 1016.22 1016.63 1017.03 1017.39 1017.70 1017.97 1018.17 1018.34 1018.48 1018.61 1018.75
1009.06 1009.37 1009.65 1009.93 1010.21 1010.50 1010.80 1011.11 1011.42 1011.71 1011.97 1012.20 1012.39 1012.54 1012.66 1012.75 1012.83 1012.89 1012.94 1013.00 1013.05 1013.11 1013.17 1013.25 1013.35 1013.48 1013.65 1013.88 1014.16 1014.49 1014.88 1015.31 1015.76 1016.21 1016.64 1017.04 1017.39 1017.69 1017.95 1018.17 1018.37 1018.55 1018.75
1008.31 1008.59 1008.85 1009.11 1009.38 1009.67 1009.97 1010.28 1010.60 1010.91 1011.19 1011.45 1011.67 1011.85 1011.99 1012.10 1012.17 1012.22 1012.26 1012.29 1012.32 1012.36 1012.41 1012.48 1012.59 1012.74 1012.93 1013.18 1013.49 1013.85 1014.26 1014.70 1015.16 1015.62 1016.06 1016.47 1016.85 1017.19 1017.49 1017.78 1018.05 1018.31 1018.59
Thickness
5791 5792 5791 5789 5786 5782 5779 5775 5772 5769 5767 5762 5758 5754 5751 5750 5749 5748 5746 5745 5743 5741 5739 5737 5736 5734 5732 5730 5729 5727 5725 5724 5723 5720 5717 5719 5721 5722 5723 5723 5722 5721 5720
5783 5785 5784 5782 5780 5777 5775 5771 5769 5766 5764 5760 5757 5753 5750 5747 5746 5744 5742 5741 5740 5738 5736 5733 5732 5730 5728 5726 5725 5723 5720 5719 5718 5714 5709 5705 5708 5714 5719 5718 5718 5718 5717
5781 5780 5779 5777 5775 5772 5770 5768 5765 5762 5760 5758 5754 5749 5745 5742 5739 5737 5737 5736 5735 5734 5732 5730 5728 5726 5724 5720 5720 5719 5717 5713 5713 5713 5707 5700 5697 5702 5709 5712 5714 5714 5713
5779 5777 5775 5771 5769 5768 5767 5764 5761 5758 5756 5753 5748 5743 5738 5734 5733 5733 5732 5731 5731 5729 5728 5726 5724 5722 5720 5717 5716 5715 5714 5712 5708 5708 5708 5706 5704 5697 5697 5703 5707 5709 5709
5775 5772 5770 5768 5766 5765 5762 5758 5755 5751 5749 5747 5744 5739 5734 5732 5730 5729 5727 5726 5725 5724 5723 5721 5719 5717 5716 5715 5712 5711 5711 5709 5706 5703 5702 5701 5700 5699 5693 5692 5697 5701 5704
5768 5766 5765 5763 5760 5758 5755 5751 5746 5743 5741 5739 5736 5733 5729 5726 5724 5721 5720 5719 5718 5718 5718 5716 5714 5713 5711 5710 5708 5707 5706 5705 5703 5701 5700 5697 5695 5693 5691 5689 5690 5692 5697
5759 5757 5755 5753 5752 5749 5746 5742 5738 5735 5734 5733 5731 5728 5725 5722 5719 5717 5715 5713 5712 5712 5712 5711 5709 5708 5707 5705 5703 5702 5701 5700 5699 5697 5696 5696 5695 5694 5691 5688 5686 5687 5691
5753 5750 5749 5746 5744 5741 5738 5734 5731 5728 5727 5726 5724 5722 5719 5717 5715 5713 5711 5709 5707 5707 5707 5706 5704 5703 5702 5700 5699 5698 5697 5696 5695 5694 5693 5692 5692 5691 5690 5687 5683 5680 5682
5747 5745 5743 5740 5737 5733 5730 5728 5724 5722 5720 5719 5717 5715 5712 5710 5708 5706 5705 5703 5703 5703 5702 5700 5699 5698 5697 5695 5694 5692 5692 5691 5690 5689 5689 5688 5688 5688 5687 5686 5684 5679 5674
5740 5737 5734 5732 5730 5727 5725 5722 5719 5716 5714 5712 5710 5709 5706 5704 5701 5700 5698 5697 5696 5696 5695 5694 5693 5692 5691 5690 5688 5687 5686 5685 5685 5684 5683 5683 5683 5683 5683 5683 5682 5680 5676
5732 5729 5727 5725 5722 5720 5717 5713 5710 5708 5706 5704 5702 5700 5699 5697 5695 5693 5692 5690 5689 5689 5688 5687 5687 5686 5685 5684 5683 5681 5681 5680 5679 5679 5678 5677 5678 5678 5678 5679 5678 5676 5674
5725 5722 5719 5716 5714 5710 5708 5705 5703 5701 5699 5697 5695 5693 5691 5689 5687 5686 5685 5684 5683 5682 5682 5681 5680 5679 5679 5678 5677 5676 5676 5675 5673 5673 5672 5672 5673 5673 5673 5673 5672 5672 5671
5717 5714 5711 5708 5706 5703 5700 5697 5695 5693 5692 5689 5686 5683 5682 5680 5679 5678 5678 5676 5676 5675 5674 5674 5672 5672 5672 5671 5671 5670 5670 5669 5668 5667 5667 5667 5667 5667 5667 5667 5667 5666 5667
5709 5706 5703 5700 5698 5695 5693 5690 5688 5686 5684 5681 5677 5675 5673 5672 5671 5671 5670 5669 5668 5667 5666 5666 5665 5665 5664 5664 5664 5663 5663 5662 5662 5662 5662 5662 5662 5662 5662 5662 5661 5661 5660
5699 5697 5694 5691 5688 5686 5684 5682 5680 5678 5677 5674 5670 5668 5667 5666 5665 5663 5662 5661 5660 5659 5658 5658 5657 5657 5657 5657 5656 5655 5655 5655 5655 5655 5656 5657 5657 5658 5657 5657 5656 5655 5654
5691 5689 5687 5684 5680 5678 5677 5674 5673 5671 5669 5666 5663 5661 5659 5658 5657 5656 5654 5653 5652 5651 5650 5649 5649 5649 5650 5650 5649 5648 5648 5648 5648 5648 5650 5651 5652 5652 5653 5653 5653 5652 5650
5684 5682 5679 5677 5674 5671 5671 5668 5667 5664 5661 5658 5656 5654 5653 5650 5649 5648 5646 5645 5644 5643 5642 5641 5641 5641 5642 5642 5642 5642 5641 5642 5642 5643 5643 5645 5647 5647 5647 5647 5647 5647 5648
5677 5674 5672 5669 5667 5666 5664 5663 5660 5657 5654 5651 5649 5647 5645 5643 5642 5640 5639 5637 5636 5635 5635 5634 5634 5634 5634 5635 5635 5635 5635 5635 5636 5637 5638 5638 5639 5641 5640 5640 5640 5640 5641
5671 5668 5666 5664 5661 5659 5657 5655 5652 5649 5646 5644 5642 5641 5639 5636 5634 5632 5631 5631 5629 5628 5627 5627 5627 5627 5627 5628 5628 5628 5627 5628 5630 5631 5632 5632 5633 5634 5634 5633 5632 5633 5635
5665 5662 5660 5658 5655 5652 5650 5646 5643 5640 5638 5637 5636 5634 5632 5630 5627 5626 5625 5624 5622 5621 5621 5620 5620 5620 5620 5622 5622 5621 5620 5621 5622 5624 5625 5626 5626 5627 5627 5626 5626 5625 5627
5659 5656 5653 5650 5648 5646 5643 5638 5635 5633 5632 5631 5629 5627 5625 5623 5621 5619 5617 5616 5615 5614 5613 5613 5613 5614 5614 5615 5615 5615 5613 5614 5615 5616 5617 5618 5619 5619 5620 5620 5620 5621 5622
5651 5648 5644 5642 5640 5638 5635 5631 5628 5628 5626 5624 5622 5620 5618 5617 5616 5611 5609 5608 5607 5606 5605 5605 5605 5606 5607 5608 5609 5608 5608 5608 5608 5608 5610 5611 5612 5613 5613 5613 5614 5615 5616
5642 5640 5637 5634 5632 5630 5627 5623 5622 5621 5619 5617 5614 5612 5611 5609 5608 5605 5603 5601 5599 5598 5598 5598 5598 5599 5599 5600 5601 5602 5602 5602 5602 5602 5603 5604 5604 5605 5606 5607 5608 5609 5609
5635 5632 5629 5626 5624 5623 5621 5619 5617 5615 5612 5610 5608 5606 5604 5603 5601 5599 5597 5595 5594 5593 5592 5592 5592 5592 5592 5592 5593 5594 5594 5594 5594 5594 5595 5596 5596 5597 5599 5600 5601 5603 5603
5629 5626 5623 5620 5618 5616 5615 5614 5612 5609 5605 5603 5602 5600 5599 5597 5596 5594 5592 5591 5590 5589 5588 5587 5586 5585 5585 5587 5587 5587 5586 5586 5586 5586 5585 5585 5587 5588 5590 5593 5595 5596 5597
5622 5619 5617 5614 5612 5610 5608 5607 5606 5603 5599 5597 5595 5594 5592 5591 5590 5588 5588 5588 5587 5586 5585 5584 5582 5582 5582 5582 5581 5581 5580 5580 5579 5577 5577 5578 5580 5582 5584 5586 5588 5590 5591